Location: Stara Lesna
(49.1528°N, 20.2911°E)
Time: 03:38:05
(UTC+02:00)

PSLV R/B - Pass Details

Date: 13 July 2020
Orbit: 598 x 701 km, 97.9° (Epoch: 11 August)

Event Time Altitude Azimuth Distance (km) Brightness Sun altitude
Rises 01:19:57 0° 12° (NNE) 2,869 8.7 -18.6°
Reaches altitude 10° 01:22:07 10° 11° (N) 1,969 7.4 -18.6°
Maximum altitude 01:26:23 76° 287° (WNW) 640 3.5 -18.4°
Enters shadow 01:27:56 39° 208° (SSW) 934 4.0 -18.4°
